SCP
0 0 0 0 0 0 0 0 0 0 0 0 0 0 0 0 0 0 0 0 0 0 0 0 0 0 0 0 0 0 0 0 0 0 0 0 0 0 0 0 0 0 0 0 0
0 0 0 0 0 0 0 0 0 0 0 0 0 0 0 0 0 0 0 0 0 0 0 0 0 0 0 0 0 0 0 0 0 0 0 0 0 0 0 0 0 0 0 0 0
0 0 0 0 0 0 0 0 0 0 0 0 0 0 0 0 0 0 0 0 0 0 0 0 0 0 0 0 0 0 0 0 0 0 0 0 0 0 0 0 0 0 0 0 0
0 0 0 0 0 0 0 0 0 0 0 0 0 0 0 0 0 0 0 0 0 0 0 0 0 0 0 0 0 0 0 0 0 0 0 0 0 0 0 0 0 0 0 0 0
0 0 0 0 0 0 0 0 0 0 0 0 0 0 0 0 0 0 0 0 0 0 0 0 0 0 0 0 0 0 0 0 0 0 0 0 0 0 0 0 0 0 0 0 0
0 0 0 0 0 0 0 0 0 0 0 0 0 0 0 0 0 0 0 0 0 0 0 0 0 0 0 0 0 0 0 0 0 0 0 0 0 0 0 0 0 0 0 0 0
0 0 0 0 0 0 0 0 -0 0 0 0 0 0 0 0 0 0 0 0 0 0 0 0 0 0 0 0 0 0 0 0 0 0 0 0 0 0 0 0 0 0 0 0 0
0 0 0 0 0 0 0 -0 -0 -0 -0 0 0 0 0 0 0 0 0 0 0 0 0 0 0 0 0 0 0 0 0 0 0 0 0 0 0 0 0 0 0 0 0 0 0
0 0 0 0 0 0 0 -0 -0 -0 0 0 0 0 0 -0 0 0 0 0 0 0 0 0 0 0 0 0 0 0 0 0 0 0 0 0 0 0 0 0 0 0 0 0 0
0 0 0 0 0 0 -0 -0 0 0 0 0 0 0 0 0 0 0 0 0 0 0 0 0 0 0 0 0 0 0 0 0 0 0 0 0 0 0 0 0 0 0 0 0 0
0 0 0 0 0 0 0 0 0 0 0 0 0 0 0 0 0 0 0 0 0 0 0 0 0 0 0 0 0 0 -0 0 0 0 0 0 0 0 0 0 0 0 0 0 0
0 0 0 0 0 0 0 0 0 0 0 0 -0 0 0 0 0 0 0 0 0 0 0 0 0 0 0 0 0 0 0 0 0 0 0 0 0 0 0 0 0 0 0 0 0
0 0 0 0 0 0 0 0 0 0 0 0 -0 -0 -0 0 0 0 0 0 0 0 0 0 0 0 0 0 0 0 0 0 0 0 0 0 0 0 0 0 0 0 0 0 0
0 0 0 0 0 0 0 0 0 0 0 0 0 0 0 0 0 0 0 0 0 0 0 0 0 0 0 -0 0 0 0 0 -0 -0 0 0 0 0 0 0 0 0 0 0 0
0 0 0 0 0 0 0 0 0 0 0 0 -0 0 0 0 0 0 0 0 0 0 0 0 0 -0 -0 -0 0 0 0 0 -0 -0 -0 -0 0 0 0 0 0 0 0 0 0
0 0 0 0 0 0 0 0 0 0 0 0 0 0 -0 0 0 0 0 0 0 0 0 0 0 0 -0 0 0 0 0 0 0 -0 -0 -0 0 0 0 0 0 0 0 0 0
0 0 0 0 0 0 0 0 0 0 0 0 0 0 0 0 0 0 0 0 0 -0 0 0 -0 -0 -0 0 0 0 0 0 -0 -0 -0 -0 0 0 0 0 0 0 0 0 0
0 0 0 0 0 0 0 0 0 0 0 0 0 0 0 0 0 0 0 0 0 0 0 0 -0 -0 0 -0 0 0 0 -0 -0 0 0 0 0 0 0 0 0 0 0 0 0
0 0 0 0 0 0 0 0 0 0 0 0 0 0 0 0 0 0 0 0 0 0 0 -0 -0 -0 -0 -0 0 0 0 0 -0 0 0 0 0 0 0 0 0 0 0 0 0
0 0 0 0 0 0 0 0 0 0 0 0 0 0 0 0 0 0 0 -0 0 -0 0 0 -0 -0 -0 -0 0 0 0 0 0 0 0 0 0 0 0 0 0 0 0 0 0
0 0 0 0 0 0 0 0 0 0 0 0 0 0 0 0 0 0 0 0 0 0 -0 -0 -0 0 -0 0 0 0 0 0 0 0 0 0 0 0 0 0 0 0 0 0 0
0 0 0 0 0 0 0 0 0 0 0 0 0 0 0 0 0 0 0 -0 0 0 0 -0 0 0 0 0 -0 -0 0 0 0 -0 0 0 0 0 0 0 0 0 0 0 0
0 0 0 0 0 0 0 0 0 0 0 0 0 0 0 0 0 0 -0 -0 -0 0 -0 0 0 0 0 0 0 -0 0 0 0 0 -0 0 0 0 0 0 0 0 0 0 0
0 0 0 0 0 0 0 0 0 0 0 0 0 0 0 0 0 0 -0 -0 -0 -0 -0 -0 0 -0 0 0 0 0 -0 0 -0 -0 -0 0 0 0 0 0 0 0 0 0 0
0 0 0 0 0 0 0 0 0 0 0 0 0 0 0 0 0 0 -0 -0 -0 0 -0 0 0 0 0 -0 0 0 -0 -0 -0 -0 -0 -0 0 0 0 0 0 0 0 0 0
0 0 0 0 0 0 0 0 0 0 0 0 0 0 0 0 0 0 -0 -0 0 0 -0 0 0 0 0 -0 0 0 0 -0 0 -0 0 0 0 0 0 0 0 0 0 0 0
0 0 0 0 0 0 0 0 0 0 0 0 0 0 0 0 0 0 0 0 -0 0 0 0 0 0 0 0 0 0 0 0 0 0 0 0 -0 -0 0 0 0 0 0 0 -0
Wind_Speed_500mb
14 14 14 16 17 20 22 27 30 30 29 30 27 29 35 38 37 34 35 34 40 40 37 39 29 21 20 14 20 7 3 5 9 7 10 17 9 13 15 27 23 29 14 12 55
12 15 18 13 17 19 23 27 28 27 27 31 34 37 34 32 37 38 22 24 37 47 43 34 30 19 9 9 16 15 9 14 9 8 10 14 19 34 15 20 18 24 22 22 65
11 14 16 14 19 22 25 29 28 24 24 27 33 36 34 34 33 11 15 17 20 30 35 33 27 17 11 17 15 14 13 10 17 22 24 16 11 34 21 7 31 48 43 44 77
11 13 14 15 20 25 25 27 27 25 27 30 33 35 34 25 4 9 11 14 13 17 24 25 21 11 10 12 27 12 21 30 30 37 14 11 15 14 37 25 49 43 44 62 79
10 12 13 16 20 24 25 25 26 27 27 27 31 34 34 19 13 15 21 24 24 15 15 14 22 19 21 10 27 17 13 34 37 38 29 35 28 18 41 29 34 45 55 69 77
16 15 15 17 19 23 23 24 24 28 28 27 30 33 30 13 13 22 31 27 21 23 18 16 17 28 33 27 25 13 38 34 38 34 12 10 21 15 31 37 35 52 63 73 79
21 18 18 17 20 22 25 25 24 27 27 24 28 31 32 18 23 24 30 32 30 20 33 25 26 33 27 15 37 31 22 19 45 49 11 18 18 12 24 43 51 60 66 74 77
24 19 19 19 19 22 26 25 26 28 26 24 26 26 18 17 19 18 29 32 27 27 27 30 33 39 29 27 16 9 13 31 37 34 19 13 20 16 28 49 49 56 65 73 78
23 22 22 20 20 21 27 27 28 27 21 21 19 17 17 17 18 28 36 34 34 30 30 36 29 17 22 18 22 20 24 46 25 37 22 26 9 25 36 47 43 49 61 64 70
18 17 16 17 18 22 26 27 24 16 9 12 6 14 8 26 49 46 39 35 37 31 28 10 11 7 11 20 40 23 6 25 28 41 44 36 24 23 36 45 47 49 51 58 67
17 12 13 13 15 22 26 20 12 3 25 10 22 26 40 42 44 36 28 20 18 13 5 11 7 21 24 30 38 39 10 11 11 21 26 52 32 36 27 43 35 37 43 54 70
14 11 9 10 12 16 21 12 13 13 19 14 13 21 25 27 27 32 31 8 0 7 6 7 20 20 20 33 28 33 32 24 19 24 17 37 52 28 23 30 40 51 48 50 57
14 10 7 6 7 11 15 15 14 13 7 15 17 14 21 27 18 40 24 8 5 9 12 18 15 7 19 25 37 29 38 40 21 16 23 22 40 36 15 17 39 35 48 56 74
13 9 6 5 4 7 7 12 11 13 9 11 10 7 17 37 12 42 14 7 3 11 12 16 30 25 26 29 25 12 16 19 12 3 17 17 9 53 36 23 18 38 40 53 66
13 10 5 3 6 6 8 7 6 6 9 12 14 18 38 7 24 7 29 4 11 11 2 11 7 15 17 24 25 6 11 19 14 10 6 20 13 18 55 36 24 29 51 60 70
15 9 6 2 4 7 7 6 5 11 9 16 14 19 23 11 8 15 16 10 9 10 14 28 39 20 13 28 36 12 5 12 18 10 11 32 28 18 45 54 24 27 42 59 70
16 12 5 1 4 5 6 6 10 9 7 17 10 14 18 10 13 9 11 12 4 10 7 12 15 13 10 19 13 16 11 3 7 5 14 16 25 10 40 55 36 31 50 50 61
19 12 5 4 6 4 6 10 9 4 10 7 9 17 9 15 8 13 12 9 4 8 7 6 12 11 11 15 10 15 9 8 7 2 12 20 16 6 6 9 64 54 55 57 55
19 13 6 4 4 4 4 8 12 12 7 12 13 12 10 10 6 13 8 8 8 6 4 8 10 5 11 30 16 7 8 7 8 6 9 4 2 2 10 13 36 44 65 54 57
20 12 5 1 1 1 7 6 3 8 3 3 3 5 7 11 11 9 7 8 17 3 23 7 13 7 5 8 13 8 16 7 2 5 9 10 3 4 3 8 17 28 39 55 59
20 8 3 3 2 3 5 11 7 8 7 4 3 6 10 7 4 7 7 15 8 16 26 13 5 12 12 3 6 7 3 7 7 6 5 8 3 5 19 12 16 18 30 49 56
17 5 6 6 5 6 4 9 3 8 10 6 6 8 8 6 7 6 8 9 28 33 13 6 6 12 8 9 8 7 8 6 5 3 3 6 5 16 17 15 25 27 31 42 50
15 8 7 7 5 3 7 4 6 5 8 4 6 6 3 5 10 9 9 14 16 16 9 9 5 9 14 5 4 4 5 7 5 7 2 6 5 13 6 13 21 35 40 44 47
12 3 5 6 7 11 6 5 5 16 16 9 7 3 7 7 9 10 8 12 18 16 36 18 5 10 5 5 5 2 7 6 3 4 4 2 8 2 3 7 16 28 38 45 44
10 4 9 3 6 7 4 9 3 4 5 6 5 11 5 7 6 8 6 13 20 19 14 11 7 10 9 11 8 5 6 2 4 4 2 3 9 15 6 8 13 32 39 42 44
15 13 11 8 16 9 8 9 8 8 7 6 8 7 7 9 7 16 6 3 6 19 11 12 7 10 6 12 11 6 4 16 11 2 3 11 8 5 12 11 15 26 39 40 45
23 17 9 13 10 8 8 9 11 9 8 10 9 8 15 16 15 27 22 22 20 13 11 12 11 8 9 14 12 6 5 6 3 4 4 2 6 9 3 7 17 27 34 38 41
Wind_Direction_500mb
15 2 356 357 0 2 357 350 344 342 342 340 327 316 318 320 313 308 297 277 265 266 276 285 294 307 289 254 225 212 61 286 283 179 240 171 163 180 179 158 177 187 184 199 178
12 2 350 358 358 359 356 353 345 338 340 343 341 335 335 324 318 312 309 291 263 263 268 286 299 304 269 257 203 171 163 213 225 285 284 212 183 172 167 161 198 194 205 204 177
10 5 11 3 356 355 355 357 357 350 344 342 337 335 336 331 329 31 39 21 327 264 270 274 286 292 247 233 213 193 195 212 276 304 290 277 228 183 155 230 201 203 192 180 177
8 3 3 357 351 351 349 355 358 358 348 342 343 337 336 330 12 23 318 335 340 324 277 277 276 255 237 210 215 234 210 218 252 262 310 286 264 205 184 210 219 217 210 183 183
341 347 346 345 350 350 344 344 350 350 345 339 340 338 339 324 294 324 318 294 292 297 313 287 269 270 248 224 229 227 200 226 251 269 272 276 257 226 213 199 204 210 200 194 191
302 310 319 327 337 344 338 334 338 342 340 336 336 332 329 310 325 320 320 317 296 292 295 296 262 269 288 268 233 190 214 229 236 255 252 270 268 230 220 208 191 193 194 196 195
289 294 296 310 325 331 335 330 329 332 333 329 328 325 312 306 326 332 335 322 299 305 302 295 305 279 307 267 267 255 246 242 230 233 232 17 274 237 240 191 186 189 191 194 198
283 288 295 297 306 321 330 325 326 324 323 318 316 315 281 335 339 346 341 334 325 293 300 293 306 300 271 281 297 220 213 233 222 215 208 144 259 244 223 188 185 188 190 195 198
274 281 289 296 300 315 324 325 322 317 315 308 311 303 294 341 322 322 334 327 329 309 294 289 301 269 270 257 269 219 233 233 238 215 202 188 232 247 210 197 184 186 191 192 198
264 276 285 300 308 318 324 331 321 322 326 328 334 311 304 318 314 307 306 318 315 312 313 288 248 237 237 229 233 249 267 246 238 220 218 215 218 265 201 196 194 192 190 192 197
255 257 283 301 312 324 337 351 347 325 331 285 295 282 305 328 314 322 322 317 310 283 228 256 234 242 263 246 258 267 202 236 274 302 259 215 226 227 220 210 195 191 194 196 203
237 241 275 297 318 336 354 42 38 333 315 343 333 299 337 337 316 338 333 310 184 261 303 269 248 266 283 295 287 260 237 238 274 276 300 226 222 226 203 217 207 195 196 197 197
217 226 257 281 313 346 17 39 7 347 311 308 332 328 346 329 307 311 328 294 270 264 243 239 257 267 269 302 262 241 252 232 243 295 276 294 238 216 229 224 213 210 204 201 201
198 211 214 258 310 355 3 3 357 348 58 297 346 2 338 326 282 326 333 278 240 296 313 242 243 219 245 258 249 254 229 233 187 223 251 160 301 217 206 215 201 194 192 195 201
182 187 200 250 316 345 348 17 350 344 15 303 311 328 331 312 298 342 331 242 235 233 255 266 251 216 250 267 186 269 167 200 169 219 250 220 255 233 199 219 203 186 184 194 202
170 172 163 260 350 6 43 26 337 42 272 332 329 351 346 334 304 288 300 295 279 289 225 252 262 269 254 265 208 159 202 235 232 210 235 241 214 218 190 197 194 171 177 187 194
166 165 171 304 11 39 41 345 31 115 324 315 332 336 330 296 315 321 321 316 292 328 316 307 225 177 148 270 199 201 179 240 255 190 262 239 208 220 203 192 182 173 159 178 189
167 160 164 116 56 57 11 46 82 220 248 308 295 308 332 354 312 331 318 316 301 245 292 311 323 171 143 234 212 199 215 145 171 295 298 224 199 184 340 305 191 161 162 182 185
166 163 163 108 67 44 348 54 205 196 250 324 316 32 327 333 348 349 311 290 294 319 257 309 278 294 149 283 166 183 185 158 108 221 234 323 306 49 44 75 136 139 155 166 184
172 168 156 148 24 135 75 245 176 219 265 280 302 124 320 303 344 333 316 277 328 343 327 285 295 281 265 150 261 274 156 157 145 31 328 279 184 102 51 135 128 143 144 157 178
172 152 170 179 130 118 153 219 246 240 222 214 263 288 249 283 255 290 262 289 356 328 325 296 265 292 315 341 329 346 245 84 113 116 253 287 17 325 314 182 151 130 138 156 174
168 80 174 171 73 56 135 191 360 272 246 244 255 248 234 241 264 273 270 211 308 323 313 302 284 282 262 307 293 147 304 344 100 163 239 259 318 311 303 160 147 136 139 160 172
155 143 167 176 131 276 296 231 237 250 219 200 258 202 272 268 296 227 274 286 307 333 337 347 274 302 322 307 193 310 105 340 342 44 278 305 353 324 21 103 134 133 141 152 161
159 81 122 139 106 136 163 263 239 215 248 248 271 306 282 261 237 284 303 295 310 287 319 304 229 282 279 296 323 219 176 262 280 141 213 317 359 250 327 116 126 128 139 151 160
169 157 155 190 210 172 152 183 214 272 235 232 302 233 256 282 288 256 321 313 305 343 321 329 297 298 288 342 323 285 173 281 287 264 312 79 54 3 39 161 129 145 155 155 164
166 151 135 104 132 161 197 219 215 268 204 238 212 272 275 260 238 297 310 277 294 326 319 320 302 325 288 345 340 310 163 179 254 233 307 90 49 13 42 107 139 160 156 165 181
186 160 150 150 161 177 219 202 213 184 232 236 233 301 287 271 281 280 270 263 275 302 312 312 321 346 297 330 329 31 316 203 236 324 347 72 127 153 66 196 180 185 191 191 193
Wind_Speed_850mb
14 14 14 16 17 20 22 27 30 30 29 30 27 29 35 38 37 34 35 34 40 40 37 39 29 21 20 14 20 7 3 5 9 7 10 17 9 13 15 27 23 29 14 12 55
12 15 18 13 17 19 23 27 28 27 27 31 34 37 34 32 37 38 22 24 37 47 43 34 30 19 9 9 16 15 9 14 9 8 10 14 19 34 15 20 18 24 22 22 65
11 14 16 14 19 22 25 29 28 24 24 27 33 36 34 34 33 11 15 17 20 30 35 33 27 17 11 17 15 14 13 10 17 22 24 16 11 34 21 7 31 48 43 44 77
11 13 14 15 20 25 25 27 27 25 27 30 33 35 34 25 4 9 11 14 13 17 24 25 21 11 10 12 27 12 21 30 30 37 14 11 15 14 37 25 49 43 44 62 79
10 12 13 16 20 24 25 25 26 27 27 27 31 34 34 19 13 15 21 24 24 15 15 14 22 19 21 10 27 17 13 34 37 38 29 35 28 18 41 29 34 45 55 69 77
16 15 15 17 19 23 23 24 24 28 28 27 30 33 30 13 13 22 31 27 21 23 18 16 17 28 33 27 25 13 38 34 38 34 12 10 21 15 31 37 35 52 63 73 79
21 18 18 17 20 22 25 25 24 27 27 24 28 31 32 18 23 24 30 32 30 20 33 25 26 33 27 15 37 31 22 19 45 49 11 18 18 12 24 43 51 60 66 74 77
24 19 19 19 19 22 26 25 26 28 26 24 26 26 18 17 19 18 29 32 27 27 27 30 33 39 29 27 16 9 13 31 37 34 19 13 20 16 28 49 49 56 65 73 78
23 22 22 20 20 21 27 27 28 27 21 21 19 17 17 17 18 28 36 34 34 30 30 36 29 17 22 18 22 20 24 46 25 37 22 26 9 25 36 47 43 49 61 64 70
18 17 16 17 18 22 26 27 24 16 9 12 6 14 8 26 49 46 39 35 37 31 28 10 11 7 11 20 40 23 6 25 28 41 44 36 24 23 36 45 47 49 51 58 67
17 12 13 13 15 22 26 20 12 3 25 10 22 26 40 42 44 36 28 20 18 13 5 11 7 21 24 30 38 39 10 11 11 21 26 52 32 36 27 43 35 37 43 54 70
14 11 9 10 12 16 21 12 13 13 19 14 13 21 25 27 27 32 31 8 0 7 6 7 20 20 20 33 28 33 32 24 19 24 17 37 52 28 23 30 40 51 48 50 57
14 10 7 6 7 11 15 15 14 13 7 15 17 14 21 27 18 40 24 8 5 9 12 18 15 7 19 25 37 29 38 40 21 16 23 22 40 36 15 17 39 35 48 56 74
13 9 6 5 4 7 7 12 11 13 9 11 10 7 17 37 12 42 14 7 3 11 12 16 30 25 26 29 25 12 16 19 12 3 17 17 9 53 36 23 18 38 40 53 66
13 10 5 3 6 6 8 7 6 6 9 12 14 18 38 7 24 7 29 4 11 11 2 11 7 15 17 24 25 6 11 19 14 10 6 20 13 18 55 36 24 29 51 60 70
15 9 6 2 4 7 7 6 5 11 9 16 14 19 23 11 8 15 16 10 9 10 14 28 39 20 13 28 36 12 5 12 18 10 11 32 28 18 45 54 24 27 42 59 70
16 12 5 1 4 5 6 6 10 9 7 17 10 14 18 10 13 9 11 12 4 10 7 12 15 13 10 19 13 16 11 3 7 5 14 16 25 10 40 55 36 31 50 50 61
19 12 5 4 6 4 6 10 9 4 10 7 9 17 9 15 8 13 12 9 4 8 7 6 12 11 11 15 10 15 9 8 7 2 12 20 16 6 6 9 64 54 55 57 55
19 13 6 4 4 4 4 8 12 12 7 12 13 12 10 10 6 13 8 8 8 6 4 8 10 5 11 30 16 7 8 7 8 6 9 4 2 2 10 13 36 44 65 54 57
20 12 5 1 1 1 7 6 3 8 3 3 3 5 7 11 11 9 7 8 17 3 23 7 13 7 5 8 13 8 16 7 2 5 9 10 3 4 3 8 17 28 39 55 59
20 8 3 3 2 3 5 11 7 8 7 4 3 6 10 7 4 7 7 15 8 16 26 13 5 12 12 3 6 7 3 7 7 6 5 8 3 5 19 12 16 18 30 49 56
17 5 6 6 5 6 4 9 3 8 10 6 6 8 8 6 7 6 8 9 28 33 13 6 6 12 8 9 8 7 8 6 5 3 3 6 5 16 17 15 25 27 31 42 50
15 8 7 7 5 3 7 4 6 5 8 4 6 6 3 5 10 9 9 14 16 16 9 9 5 9 14 5 4 4 5 7 5 7 2 6 5 13 6 13 21 35 40 44 47
12 3 5 6 7 11 6 5 5 16 16 9 7 3 7 7 9 10 8 12 18 16 36 18 5 10 5 5 5 2 7 6 3 4 4 2 8 2 3 7 16 28 38 45 44
10 4 9 3 6 7 4 9 3 4 5 6 5 11 5 7 6 8 6 13 20 19 14 11 7 10 9 11 8 5 6 2 4 4 2 3 9 15 6 8 13 32 39 42 44
15 13 11 8 16 9 8 9 8 8 7 6 8 7 7 9 7 16 6 3 6 19 11 12 7 10 6 12 11 6 4 16 11 2 3 11 8 5 12 11 15 26 39 40 45
23 17 9 13 10 8 8 9 11 9 8 10 9 8 15 16 15 27 22 22 20 13 11 12 11 8 9 14 12 6 5 6 3 4 4 2 6 9 3 7 17 27 34 38 41
Wind_Direction_850mb
15 2 356 357 0 2 357 350 344 342 342 340 327 316 318 320 313 308 297 277 265 266 276 285 294 307 289 254 225 212 61 286 283 179 240 171 163 180 179 158 177 187 184 199 178
12 2 350 358 358 359 356 353 345 338 340 343 341 335 335 324 318 312 309 291 263 263 268 286 299 304 269 257 203 171 163 213 225 285 284 212 183 172 167 161 198 194 205 204 177
10 5 11 3 356 355 355 357 357 350 344 342 337 335 336 331 329 31 39 21 327 264 270 274 286 292 247 233 213 193 195 212 276 304 290 277 228 183 155 230 201 203 192 180 177
8 3 3 357 351 351 349 355 358 358 348 342 343 337 336 330 12 23 318 335 340 324 277 277 276 255 237 210 215 234 210 218 252 262 310 286 264 205 184 210 219 217 210 183 183
341 347 346 345 350 350 344 344 350 350 345 339 340 338 339 324 294 324 318 294 292 297 313 287 269 270 248 224 229 227 200 226 251 269 272 276 257 226 213 199 204 210 200 194 191
302 310 319 327 337 344 338 334 338 342 340 336 336 332 329 310 325 320 320 317 296 292 295 296 262 269 288 268 233 190 214 229 236 255 252 270 268 230 220 208 191 193 194 196 195
289 294 296 310 325 331 335 330 329 332 333 329 328 325 312 306 326 332 335 322 299 305 302 295 305 279 307 267 267 255 246 242 230 233 232 17 274 237 240 191 186 189 191 194 198
283 288 295 297 306 321 330 325 326 324 323 318 316 315 281 335 339 346 341 334 325 293 300 293 306 300 271 281 297 220 213 233 222 215 208 144 259 244 223 188 185 188 190 195 198
274 281 289 296 300 315 324 325 322 317 315 308 311 303 294 341 322 322 334 327 329 309 294 289 301 269 270 257 269 219 233 233 238 215 202 188 232 247 210 197 184 186 191 192 198
264 276 285 300 308 318 324 331 321 322 326 328 334 311 304 318 314 307 306 318 315 312 313 288 248 237 237 229 233 249 267 246 238 220 218 215 218 265 201 196 194 192 190 192 197
255 257 283 301 312 324 337 351 347 325 331 285 295 282 305 328 314 322 322 317 310 283 228 256 234 242 263 246 258 267 202 236 274 302 259 215 226 227 220 210 195 191 194 196 203
237 241 275 297 318 336 354 42 38 333 315 343 333 299 337 337 316 338 333 310 184 261 303 269 248 266 283 295 287 260 237 238 274 276 300 226 222 226 203 217 207 195 196 197 197
217 226 257 281 313 346 17 39 7 347 311 308 332 328 346 329 307 311 328 294 270 264 243 239 257 267 269 302 262 241 252 232 243 295 276 294 238 216 229 224 213 210 204 201 201
198 211 214 258 310 355 3 3 357 348 58 297 346 2 338 326 282 326 333 278 240 296 313 242 243 219 245 258 249 254 229 233 187 223 251 160 301 217 206 215 201 194 192 195 201
182 187 200 250 316 345 348 17 350 344 15 303 311 328 331 312 298 342 331 242 235 233 255 266 251 216 250 267 186 269 167 200 169 219 250 220 255 233 199 219 203 186 184 194 202
170 172 163 260 350 6 43 26 337 42 272 332 329 351 346 334 304 288 300 295 279 289 225 252 262 269 254 265 208 159 202 235 232 210 235 241 214 218 190 197 194 171 177 187 194
166 165 171 304 11 39 41 345 31 115 324 315 332 336 330 296 315 321 321 316 292 328 316 307 225 177 148 270 199 201 179 240 255 190 262 239 208 220 203 192 182 173 159 178 189
167 160 164 116 56 57 11 46 82 220 248 308 295 308 332 354 312 331 318 316 301 245 292 311 323 171 143 234 212 199 215 145 171 295 298 224 199 184 340 305 191 161 162 182 185
166 163 163 108 67 44 348 54 205 196 250 324 316 32 327 333 348 349 311 290 294 319 257 309 278 294 149 283 166 183 185 158 108 221 234 323 306 49 44 75 136 139 155 166 184
172 168 156 148 24 135 75 245 176 219 265 280 302 124 320 303 344 333 316 277 328 343 327 285 295 281 265 150 261 274 156 157 145 31 328 279 184 102 51 135 128 143 144 157 178
172 152 170 179 130 118 153 219 246 240 222 214 263 288 249 283 255 290 262 289 356 328 325 296 265 292 315 341 329 346 245 84 113 116 253 287 17 325 314 182 151 130 138 156 174
168 80 174 171 73 56 135 191 360 272 246 244 255 248 234 241 264 273 270 211 308 323 313 302 284 282 262 307 293 147 304 344 100 163 239 259 318 311 303 160 147 136 139 160 172
155 143 167 176 131 276 296 231 237 250 219 200 258 202 272 268 296 227 274 286 307 333 337 347 274 302 322 307 193 310 105 340 342 44 278 305 353 324 21 103 134 133 141 152 161
159 81 122 139 106 136 163 263 239 215 248 248 271 306 282 261 237 284 303 295 310 287 319 304 229 282 279 296 323 219 176 262 280 141 213 317 359 250 327 116 126 128 139 151 160
169 157 155 190 210 172 152 183 214 272 235 232 302 233 256 282 288 256 321 313 305 343 321 329 297 298 288 342 323 285 173 281 287 264 312 79 54 3 39 161 129 145 155 155 164
166 151 135 104 132 161 197 219 215 268 204 238 212 272 275 260 238 297 310 277 294 326 319 320 302 325 288 345 340 310 163 179 254 233 307 90 49 13 42 107 139 160 156 165 181
186 160 150 150 161 177 219 202 213 184 232 236 233 301 287 271 281 280 270 263 275 302 312 312 321 346 297 330 329 31 316 203 236 324 347 72 127 153 66 196 180 185 191 191 193